Weather History for Steamboat Springs, CO

Change the Weather History Date:

Thursday, January 24, 2013

  Actual Average Record
Temperature  
Mean Temperature 21 °F -  
Max Temperature 35 °F 29 °F 57 °F (1910)
Min Temperature 7 °F 2 °F -31 °F (1915)
Degree Days  
Heating Degree Days 44    
Moisture  
Dew Point 17 °F    
Average Humidity 80    
Maximum Humidity 100    
Minimum Humidity 51    
Precipitation  
Precipitation 0.00 in - - ()
Sea Level Pressure  
Sea Level Pressure 30.26 in    
Wind  
Wind Speed 1 mph (ESE)    
Max Wind Speed 9 mph    
Max Gust Speed -    
Visibility 7 miles    
Events      
Averages and records for this station are not official NWS values.
T = Trace of Precipitation, MM = Missing Value Source: NWS Daily Summary

Daily Weather History Graph

Daily Weather History Graph

Search for Another Location

Airport:

Trip Planner

Search our weather history database for the weather conditions in past years. The results will help you decide how hot, cold, wet, or windy it might be!

Date:

Astronomy

Jan. 24, 2013 Rise Set
Actual Time 7:23 AM MST 5:16 PM MST
Civil Twilight 6:54 AM MST 5:45 PM MST
Nautical Twilight 6:21 AM MST 6:18 PM MST
Astronomical Twilight 5:48 AM MST 6:51 PM MST
Moon 3:20 PM MST (1/24) 5:23 AM MST (1/24)
Length of Visible Light 10h 51m
Length of Day
9h 52m
Waxing Gibbous, 95% of the Moon is Illuminated
Jan 24
Waxing Gibbous
Jan 26
Full
Feb 3
Last Quarter
Feb 10
New
Feb 17
First Quarter

Hourly Weather History & Observations

Time (MST) Temp. Windchill Dew Point Humidity Pressure Visibility Wind Dir Wind Speed Gust Speed Precip Events Conditions
12:15 AM 12.6 °F - 5.5 °F 74% 30.28 in 10.0 mi Calm Calm - N/A   Clear
12:35 AM 14.2 °F - 5.7 °F 69% 30.27 in 10.0 mi Calm Calm - N/A   Clear
12:55 AM 10.6 °F 4.3 °F 4.8 °F 78% 30.26 in 10.0 mi SE 3.5 mph - N/A   Clear
1:15 AM 8.4 °F - 3.7 °F 81% 30.26 in 10.0 mi Calm Calm - N/A   Clear
1:35 AM 12.0 °F - 5.7 °F 76% 30.27 in 10.0 mi Calm Calm - N/A   Clear
1:55 AM 11.5 °F - 4.6 °F 74% 30.27 in 10.0 mi Calm Calm - N/A   Clear
2:15 AM 9.5 °F - 3.0 °F 75% 30.27 in 10.0 mi Calm Calm - N/A   Clear
2:35 AM 12.0 °F - 6.3 °F 78% 30.27 in 10.0 mi Calm Calm - N/A   Clear
2:55 AM 11.7 °F - 5.9 °F 78% 30.27 in 10.0 mi Calm Calm - N/A   Clear
3:15 AM 11.7 °F - 5.7 °F 77% 30.26 in 10.0 mi Calm Calm - N/A   Clear
3:35 AM 9.1 °F - 3.6 °F 78% 30.26 in 10.0 mi Calm Calm - N/A   Clear
3:55 AM 9.1 °F - 3.0 °F 76% 30.26 in 10.0 mi Calm Calm - N/A   Clear
4:15 AM 10.8 °F - 5.0 °F 78% 30.25 in 10.0 mi Calm Calm - N/A   Scattered Clouds
4:35 AM 9.3 °F - 3.0 °F 76% 30.26 in 10.0 mi Calm Calm - N/A   Mostly Cloudy
4:55 AM 10.4 °F - 5.0 °F 79% 30.26 in 10.0 mi Calm Calm - N/A   Overcast
5:15 AM 9.1 °F - 3.6 °F 78% 30.27 in 10.0 mi Calm Calm - N/A   Mostly Cloudy
5:35 AM 11.7 °F - 6.1 °F 78% 30.26 in 10.0 mi Calm Calm - N/A   Scattered Clouds
5:55 AM 7.9 °F - 3.0 °F 81% 30.26 in 10.0 mi Calm Calm - N/A   Scattered Clouds
6:15 AM 9.7 °F - 5.0 °F 81% 30.27 in 10.0 mi Calm Calm - N/A   Scattered Clouds
6:35 AM 9.1 °F - 3.9 °F 79% 30.27 in 10.0 mi Calm Calm - N/A   Overcast
6:55 AM 7.5 °F - 2.5 °F 80% 30.27 in 10.0 mi Calm Calm - N/A   Scattered Clouds
7:15 AM 12.7 °F - 6.4 °F 76% 30.25 in 10.0 mi Calm Calm - N/A   Clear
7:35 AM 9.9 °F - 4.1 °F 78% 30.25 in 10.0 mi Calm Calm - N/A   Mostly Cloudy
7:55 AM 10.0 °F - 4.6 °F 79% 30.25 in 10.0 mi Calm Calm - N/A   Overcast
8:15 AM 7.7 °F - 2.3 °F 79% 30.27 in 10.0 mi Calm Calm - N/A   Scattered Clouds
8:35 AM 11.3 °F 3.3 °F 5.0 °F 76% 30.27 in 10.0 mi ENE 4.6 mph - N/A   Clear
8:55 AM 15.3 °F 9.6 °F 6.6 °F 69% 30.26 in 10.0 mi East 3.5 mph - N/A   Clear
9:15 AM 15.8 °F - 6.3 °F 66% 30.26 in 10.0 mi Calm Calm - N/A   Clear
9:35 AM 15.4 °F - 5.0 °F 63% 30.27 in 10.0 mi Calm Calm - N/A   Clear
9:55 AM 16.5 °F - 5.9 °F 63% 30.26 in 10.0 mi Calm Calm - N/A   Scattered Clouds
10:15 AM 21.4 °F - 8.4 °F 57% 30.26 in 10.0 mi Calm Calm - N/A   Clear
10:35 AM 21.9 °F 11.7 °F 8.8 °F 57% 30.27 in 10.0 mi SW 9.2 mph - N/A   Mostly Cloudy
10:55 AM 21.9 °F - 9.1 °F 58% 30.27 in 10.0 mi Calm Calm - N/A   Scattered Clouds
11:15 AM 25.9 °F - 10.2 °F 52% 30.26 in 10.0 mi Calm Calm - N/A   Scattered Clouds
11:35 AM 26.8 °F - 11.5 °F 53% 30.25 in 10.0 mi Calm Calm - N/A   Mostly Cloudy
11:55 AM 28.4 °F - 12.2 °F 51% 30.24 in 10.0 mi Calm Calm - N/A   Overcast
12:15 PM 27.1 °F - 13.8 °F 57% 30.24 in 10.0 mi Calm Calm - N/A   Overcast
12:35 PM 27.1 °F - 14.4 °F 59% 30.23 in 10.0 mi Calm Calm - N/A   Overcast
12:55 PM 26.4 °F - 14.7 °F 61% 30.24 in 10.0 mi Calm Calm - N/A   Overcast
1:15 PM 30.0 °F - 16.0 °F 56% 30.23 in 10.0 mi Calm Calm - N/A   Overcast
1:35 PM 32.2 °F - 17.4 °F 55% 30.23 in 10.0 mi Calm Calm - N/A   Overcast
1:55 PM 32.5 °F - 18.1 °F 55% 30.22 in 10.0 mi Calm Calm - N/A   Overcast
2:15 PM 35.6 °F - 19.4 °F 52% 30.22 in 10.0 mi Calm Calm - N/A   Overcast
2:35 PM 35.8 °F 30.9 °F 23.2 °F 60% 30.22 in 10.0 mi NNW 5.8 mph - N/A   Overcast
2:55 PM 35.6 °F 29.9 °F 27.5 °F 72% 30.23 in 4.0 mi North 6.9 mph - N/A   Overcast
3:15 PM 34.9 °F 30.8 °F 29.1 °F 79% 30.24 in 3.0 mi NNW 4.6 mph - N/A   Overcast
3:35 PM 34.0 °F - 30.4 °F 87% 30.24 in 1.2 mi Calm Calm - N/A   Overcast
3:55 PM 32.5 °F 29.3 °F 31.6 °F 96% 30.24 in 1.2 mi ESE 3.5 mph - N/A   Overcast
4:15 PM 32.0 °F 28.7 °F 31.8 °F 99% 30.24 in 0.5 mi SE 3.5 mph - N/A   Overcast
4:35 PM 32.0 °F 26.4 °F 31.8 °F 99% 30.24 in 0.8 mi ESE 5.8 mph - N/A   Overcast
4:55 PM 32.0 °F 27.5 °F 31.8 °F 99% 30.24 in 1.2 mi ESE 4.6 mph - N/A   Overcast
5:15 PM 32.0 °F 28.7 °F 31.8 °F 99% 30.25 in 1.2 mi ESE 3.5 mph - N/A   Overcast
5:35 PM 32.0 °F 28.7 °F 32.0 °F 100% 30.25 in 2.0 mi ESE 3.5 mph - N/A   Overcast
5:55 PM 32.0 °F - 31.8 °F 99% 30.26 in 1.5 mi Calm Calm - N/A   Overcast
6:15 PM 31.1 °F 24.5 °F 30.9 °F 99% 30.27 in 0.5 mi ENE 6.9 mph - N/A   Overcast
6:35 PM 30.7 °F - 30.4 °F 99% 30.28 in 1.8 mi Calm Calm - N/A   Overcast
6:55 PM 30.7 °F 27.3 °F 30.2 °F 98% 30.27 in 1.8 mi ESE 3.5 mph - N/A   Overcast
7:15 PM 31.1 °F 25.4 °F 31.1 °F 100% 30.28 in 2.5 mi ESE 5.8 mph - N/A   Overcast
7:35 PM 31.8 °F 28.5 °F 31.6 °F 99% 30.27 in 5.0 mi ESE 3.5 mph - N/A   Overcast
7:55 PM 31.1 °F - 31.1 °F 100% 30.29 in 2.5 mi Calm Calm - N/A   Overcast
8:15 PM 31.1 °F - 30.9 °F 99% 30.29 in 3.0 mi Calm Calm - N/A   Overcast
8:35 PM 31.1 °F - 30.9 °F 99% 30.28 in 4.0 mi Calm Calm - N/A   Overcast
8:55 PM 31.5 °F - 31.1 °F 99% 30.29 in 7.0 mi Calm Calm - N/A   Overcast
9:15 PM 30.9 °F - 30.7 °F 99% 30.30 in 2.5 mi Calm Calm - N/A   Overcast
9:35 PM 31.1 °F 27.7 °F 30.9 °F 99% 30.29 in 3.0 mi SSE 3.5 mph - N/A   Overcast
9:55 PM 30.6 °F - 30.2 °F 99% 30.29 in 1.5 mi Calm Calm - N/A   Overcast
10:15 PM 30.9 °F - 30.7 °F 99% 30.29 in 3.0 mi Calm Calm - N/A   Overcast
10:35 PM 31.3 °F - 31.1 °F 99% 30.29 in 7.0 mi Calm Calm - N/A   Overcast
10:55 PM 30.2 °F - 30.2 °F 100% 30.28 in 1.5 mi Calm Calm - N/A   Overcast
11:15 PM 30.4 °F - 30.2 °F 99% 30.30 in 2.5 mi Calm Calm - N/A   Overcast
11:35 PM 30.9 °F - 30.7 °F 99% 30.30 in 5.0 mi Calm Calm - N/A   Overcast
11:55 PM 30.6 °F - 30.2 °F 99% 30.30 in 3.0 mi Calm Calm - N/A   Overcast